Find Kosmos-480

NORAD ID: 5905 Int'l Des: 1972-019 Owner: OKB10 Country: SU operational
LEOCIRCULARPOLAR

当前视图

正在加载3D地球...

关于 Kosmos-480

正在加载描述...

即将过境

Passes for default location (London). Set your location on the main map for personalized predictions.

高度历史

Loading altitude history...

两行轨道根数

1 5905U 72019A 26149.92721948 .00000024 00000-0 26800-4 0 9998
2 5905 82.9738 306.4335 0019779 84.3798 82.1417 13.19937685609699
Epoch: May 29, 2026 • Age: 16 hours

当前状态

高度 1186.3 km
速度 7.26 km/s
星下点 -1.22°S, 148.94°W
类型 other

Most Searched